Regional Weather Roundup
Issued by NWS

Home | Current Version | Previous Version | Text Only | Print | Product List | Glossary On
Versions: 1 2 3 4 5 6 7 8 9 10 11 12 13 14 15 16 17 18 19 20 21 22 23 24 25 26 27 28 29 30 31 32 33 34 35 36 37 38 39 40 41 42 43 44 45 46 47 48 49 50
186
ASUS44 KOUN 241900
RWROK

WEATHER ROUNDUP FOR OKLAHOMA
NATIONAL WEATHER SERVICE NORMAN OK
200 PM CDT SUN JUL 24 2016

NOTE: "FAIR" INDICATES FEW OR NO CLOUDS BELOW 12,000 FEET WITH NO
      SIGNIFICANT WEATHER AND/OR OBSTRUCTIONS TO VISIBILITY.

OKZ001>007-009>012-014-015-017-242000-
NORTHWEST OKLAHOMA AND THE PANHANDLE

CITY           SKY/WX    TMP DP  RH WIND       PRES   REMARKS
GAGE           CLOUDY    95  62  33 W5        29.98F HX  96
GUYMON         SUNNY     94  57  28 N12       30.01F HX  92
$$

OKZ016-021>023-033>039-044-045-242000-
SOUTHWEST OKLAHOMA

CITY           SKY/WX    TMP DP  RH WIND       PRES   REMARKS
LAWTON/REGL    SUNNY    100  65  31 CALM      29.95F HX 103
LAWTON/FT SILL SUNNY     98  71  41 SW5       29.94F HX 105
FREDERICK      SUNNY     98  69  38 S8        29.92F HX 104
CLINTON        SUNNY    100  62  28 S10G17    29.99F HX 101
HOBART         SUNNY     98  68  37 S14       29.97F HX 103
ALTUS AFB      MOSUNNY   97  66  35 VRB7      29.95F HX 100
$$

OKZ018>020-024>031-242000-
CENTRAL OKLAHOMA

CITY           SKY/WX    TMP DP  RH WIND       PRES   REMARKS
OKLAHOMA CITY  MOSUNNY   99  68  36 S12G18    29.96F HX 104
OKC/WILEY POST SUNNY     99  67  35 SW12      29.95F HX 103
OKC/TINKER AFB SUNNY     95  72  46 S12       29.97F HX 103
STILLWATER     SUNNY    100  66  32 S12       29.93F HX 104
GUTHRIE        SUNNY    101  65  30 SW12G17   29.93F HX 104
$$

OKZ008-013-054>072-242000-
NORTHEAST OKLAHOMA

CITY           SKY/WX    TMP DP  RH WIND       PRES   REMARKS
TULSA          MOSUNNY   99  70  38 SW7G17    29.92F HX 106
TULSA/JONES    SUNNY     98  73  44 SW8       29.94F HX 108
PONCA CITY     SUNNY    101  68  34 S10G17    29.91F HX 106
BARTLESVILLE   SUNNY     99  71  40 VRB7      29.94F HX 107
MUSKOGEE       SUNNY     98  72  42 VRB3      29.95F HX 107
$$

OKZ032-040>043-046>053-073>077-242000-
SOUTH CENTRAL/SOUTHEAST OKLAHOMA

CITY           SKY/WX    TMP DP  RH WIND       PRES   REMARKS
MCALESTER      SUNNY     96  73  47 VRB5      29.97F HX 105
$$





USA.gov is the U.S. government's official web portal to all federal, state and local government web resources and services.